Tracking 30995 objects as of 5-Jul-2025
HD Live streaming from Space Station
objects crossing your sky now

NOAA 17 DEB

Track NOAA 17 DEB now!
10-day predictions


NORAD ID: 48705
Int'l Code: 2002-032AP
Perigee: 784.8 km
Apogee: 797.7 km
Inclination: 98.8 °
Period: 100.5 minutes
Semi major axis: 7162 km
RCS: Unknown
Launch date: June 24, 2002
Source: United States (US)
Launch site: AIR FORCE WESTERN TEST RANGE (AFWTR)

Note: This is SATELLITE DEBRIS
Your satellite tracking list
Your tracking list is empty




NASA's NSSDC Master Catalog

Two Line Element Set (TLE):
1 48705U 02032AN  25186.86396438  .00001082  00000-0  41793-3 0  9998
2 48705  98.7793 147.1470 0008949 258.5178 101.5000 14.32280567224934
Source of the keplerian elements: AFSPC